Time,TemperatureF,DewpointF,PressureIn,WindDirection,WindDirectionDegrees,WindSpeedMPH,WindSpeedGustMPH,Humidity,HourlyPrecipIn,Conditions,Clouds,dailyrainin,SoftwareType,DateUTC
2013-01-18 00:03:00,23.8,10.0,30.09,NNW,331,0.0,4.0,56,0.00,,,0.00,weatherlink.com 1.10,2013-01-18 05:03:00,
2013-01-18 00:19:00,23.7,10.0,30.07,North,349,0.0,4.0,56,0.00,,,0.00,weatherlink.com 1.10,2013-01-18 05:19:00,
2013-01-18 00:35:00,23.6,11.0,30.07,NNW,337,3.0,3.0,57,0.00,,,0.00,weatherlink.com 1.10,2013-01-18 05:35:00,
2013-01-18 00:51:00,23.5,10.0,30.08,NW,305,1.0,5.0,57,0.00,,,0.00,weatherlink.com 1.10,2013-01-18 05:51:00,
2013-01-18 01:06:00,23.3,9.0,30.07,NW,326,6.0,10.0,55,0.00,,,0.00,weatherlink.com 1.10,2013-01-18 06:06:00,
2013-01-18 01:22:00,23.1,9.0,30.08,WNW,298,1.0,8.0,55,0.00,,,0.00,weatherlink.com 1.10,2013-01-18 06:22:00,
2013-01-18 01:38:00,22.0,10.0,30.09,North,349,3.0,12.0,59,0.00,,,0.00,weatherlink.com 1.10,2013-01-18 06:38:00,
2013-01-18 01:54:00,21.1,10.0,30.12,NNE,29,8.0,10.0,63,0.00,,,0.00,weatherlink.com 1.10,2013-01-18 06:54:00,
2013-01-18 02:11:00,20.4,10.0,30.14,North,6,2.0,9.0,64,0.00,,,0.00,weatherlink.com 1.10,2013-01-18 07:11:00,
2013-01-18 02:27:00,19.8,10.0,30.14,NNW,335,1.0,9.0,64,0.00,,,0.00,weatherlink.com 1.10,2013-01-18 07:27:00,
2013-01-18 02:43:00,19.5,9.0,30.14,NNW,342,2.0,9.0,63,0.00,,,0.00,weatherlink.com 1.10,2013-01-18 07:43:00,
2013-01-18 02:59:00,19.3,8.0,30.14,SE,134,0.0,7.0,60,0.00,,,0.00,weatherlink.com 1.10,2013-01-18 07:59:00,
2013-01-18 03:14:00,18.9,7.0,30.13,North,353,1.0,5.0,58,0.00,,,0.00,weatherlink.com 1.10,2013-01-18 08:14:00,
2013-01-18 03:30:00,18.4,5.0,30.15,North,5,2.0,4.0,56,0.00,,,0.00,weatherlink.com 1.10,2013-01-18 08:30:00,
2013-01-18 03:46:00,18.4,6.0,30.15,NNW,342,3.0,8.0,57,0.00,,,0.00,weatherlink.com 1.10,2013-01-18 08:46:00,
2013-01-18 04:02:00,17.9,7.0,30.15,NNW,328,2.0,7.0,63,0.00,,,0.00,weatherlink.com 1.10,2013-01-18 09:02:00,
2013-01-18 04:18:00,17.5,7.0,30.17,NNW,335,2.0,8.0,64,0.00,,,0.00,weatherlink.com 1.10,2013-01-18 09:18:00,
2013-01-18 04:33:00,17.3,7.0,30.17,NNW,346,5.0,6.0,64,0.00,,,0.00,weatherlink.com 1.10,2013-01-18 09:33:00,
2013-01-18 04:49:00,16.8,7.0,30.19,NNW,340,3.0,9.0,64,0.00,,,0.00,weatherlink.com 1.10,2013-01-18 09:49:00,
2013-01-18 05:05:00,16.4,6.0,30.20,NE,48,0.0,9.0,64,0.00,,,0.00,weatherlink.com 1.10,2013-01-18 10:05:00,
2013-01-18 05:21:00,16.0,6.0,30.21,SE,134,0.0,7.0,64,0.00,,,0.00,weatherlink.com 1.10,2013-01-18 10:21:00,
2013-01-18 05:36:00,15.8,6.0,30.22,NNW,339,4.0,8.0,65,0.00,,,0.00,weatherlink.com 1.10,2013-01-18 10:36:00,
2013-01-18 06:08:00,14.9,6.0,30.25,NW,325,0.0,4.0,67,0.00,,,0.00,weatherlink.com 1.10,2013-01-18 11:08:00,
2013-01-18 06:24:00,14.4,6.0,30.26,NNW,339,0.0,1.0,68,0.00,,,0.00,weatherlink.com 1.10,2013-01-18 11:24:00,
2013-01-18 06:40:00,14.1,6.0,30.27,NNW,334,0.0,4.0,69,0.00,,,0.00,weatherlink.com 1.10,2013-01-18 11:40:00,
2013-01-18 06:55:00,13.7,5.0,30.28,NNW,330,1.0,4.0,69,0.00,,,0.00,weatherlink.com 1.10,2013-01-18 11:55:00,
2013-01-18 07:11:00,13.5,6.0,30.29,NNW,340,1.0,4.0,71,0.00,,,0.00,weatherlink.com 1.10,2013-01-18 12:11:00,
2013-01-18 07:27:00,13.3,6.0,30.30,NNW,334,0.0,2.0,72,0.00,,,0.00,weatherlink.com 1.10,2013-01-18 12:27:00,
2013-01-18 07:43:00,12.7,6.0,30.31,NNW,334,0.0,1.0,73,0.00,,,0.00,weatherlink.com 1.10,2013-01-18 12:43:00,
2013-01-18 07:58:00,12.6,6.0,30.32,NNW,338,0.0,1.0,74,0.00,,,0.00,weatherlink.com 1.10,2013-01-18 12:58:00,
2013-01-18 08:15:00,12.9,6.0,30.33,NNW,345,0.0,1.0,74,0.00,,,0.00,weatherlink.com 1.10,2013-01-18 13:15:00,
2013-01-18 08:30:00,13.4,6.0,30.34,North,354,0.0,2.0,72,0.00,,,0.00,weatherlink.com 1.10,2013-01-18 13:30:00,
2013-01-18 08:46:00,14.6,6.0,30.35,NNW,328,3.0,4.0,68,0.00,,,0.00,weatherlink.com 1.10,2013-01-18 13:46:00,
2013-01-18 09:02:00,15.9,6.0,30.36,NNW,339,1.0,6.0,64,0.00,,,0.00,weatherlink.com 1.10,2013-01-18 14:02:00,
2013-01-18 09:17:00,17.2,5.0,30.37,NNE,12,3.0,6.0,59,0.00,,,0.00,weatherlink.com 1.10,2013-01-18 14:17:00,
2013-01-18 09:33:00,17.9,4.0,30.38,NW,317,0.0,7.0,54,0.00,,,0.00,weatherlink.com 1.10,2013-01-18 14:33:00,
2013-01-18 09:49:00,18.9,1.0,30.38,NNW,347,5.0,8.0,46,0.00,,,0.00,weatherlink.com 1.10,2013-01-18 14:49:00,
2013-01-18 10:05:00,19.2,-2.0,30.38,NNW,338,3.0,9.0,39,0.00,,,0.00,weatherlink.com 1.10,2013-01-18 15:05:00,
2013-01-18 10:21:00,19.3,-2.0,30.39,NNW,345,13.0,13.0,38,0.00,,,0.00,weatherlink.com 1.10,2013-01-18 15:21:00,
2013-01-18 10:37:00,19.5,-3.0,30.39,NW,317,3.0,11.0,37,0.00,,,0.00,weatherlink.com 1.10,2013-01-18 15:37:00,
2013-01-18 10:52:00,19.9,-1.0,30.38,SSW,192,1.0,10.0,39,0.00,,,0.00,weatherlink.com 1.10,2013-01-18 15:52:00,
2013-01-18 11:08:00,19.9,-1.0,30.38,WNW,302,1.0,11.0,39,0.00,,,0.00,weatherlink.com 1.10,2013-01-18 16:08:00,
2013-01-18 11:24:00,20.5,0.0,30.38,West,259,3.0,12.0,41,0.00,,,0.00,weatherlink.com 1.10,2013-01-18 16:24:00,
2013-01-18 11:39:00,20.5,1.0,30.38,West,266,3.0,11.0,42,0.00,,,0.00,weatherlink.com 1.10,2013-01-18 16:39:00,
2013-01-18 11:55:00,20.4,2.0,30.38,NW,311,7.0,13.0,44,0.00,,,0.00,weatherlink.com 1.10,2013-01-18 16:55:00,
2013-01-18 12:11:00,20.4,2.0,30.38,SW,228,1.0,10.0,45,0.00,,,0.00,weatherlink.com 1.10,2013-01-18 17:11:00,
2013-01-18 12:27:00,21.6,3.0,30.37,NNW,334,4.0,7.0,44,0.00,,,0.00,weatherlink.com 1.10,2013-01-18 17:27:00,
2013-01-18 12:43:00,21.9,3.0,30.37,WNW,297,3.0,11.0,44,0.00,,,0.00,weatherlink.com 1.10,2013-01-18 17:43:00,
2013-01-18 12:59:00,22.3,5.0,30.37,WNW,295,7.0,14.0,46,0.00,,,0.00,weatherlink.com 1.10,2013-01-18 17:59:00,
2013-01-18 13:14:00,22.9,5.0,30.38,East,90,2.0,10.0,45,0.00,,,0.00,weatherlink.com 1.10,2013-01-18 18:14:00,
2013-01-18 13:30:00,22.8,4.0,30.38,WNW,290,2.0,11.0,44,0.00,,,0.00,weatherlink.com 1.10,2013-01-18 18:30:00,
2013-01-18 13:46:00,23.4,5.0,30.39,North,9,7.0,11.0,45,0.00,,,0.00,weatherlink.com 1.10,2013-01-18 18:46:00,
2013-01-18 14:02:00,23.8,5.0,30.38,NNW,340,1.0,10.0,44,0.00,,,0.00,weatherlink.com 1.10,2013-01-18 19:02:00,
2013-01-18 14:18:00,24.3,5.0,30.38,West,278,4.0,9.0,44,0.00,,,0.00,weatherlink.com 1.10,2013-01-18 19:18:00,
2013-01-18 14:34:00,24.3,5.0,30.37,NW,304,4.0,14.0,44,0.00,,,0.00,weatherlink.com 1.10,2013-01-18 19:34:00,
2013-01-18 14:49:00,24.3,5.0,30.37,WNW,288,5.0,12.0,44,0.00,,,0.00,weatherlink.com 1.10,2013-01-18 19:49:00,
2013-01-18 15:05:00,24.7,5.0,30.36,NW,321,6.0,11.0,43,0.00,,,0.00,weatherlink.com 1.10,2013-01-18 20:05:00,
2013-01-18 15:21:00,24.1,6.0,30.37,WNW,288,1.0,7.0,45,0.00,,,0.00,weatherlink.com 1.10,2013-01-18 20:21:00,
2013-01-18 15:37:00,24.4,6.0,30.37,NNW,332,7.0,16.0,45,0.00,,,0.00,weatherlink.com 1.10,2013-01-18 20:37:00,
2013-01-18 15:52:00,24.1,7.0,30.38,SSW,207,3.0,9.0,47,0.00,,,0.00,weatherlink.com 1.10,2013-01-18 20:52:00,
2013-01-18 16:08:00,24.7,8.0,30.38,SW,235,6.0,8.0,48,0.00,,,0.00,weatherlink.com 1.10,2013-01-18 21:08:00,
2013-01-18 16:24:00,23.2,7.0,30.38,NE,40,0.0,12.0,50,0.00,,,0.00,weatherlink.com 1.10,2013-01-18 21:24:00,
2013-01-18 16:40:00,22.7,7.0,30.38,WNW,298,4.0,8.0,51,0.00,,,0.00,weatherlink.com 1.10,2013-01-18 21:40:00,
2013-01-18 16:56:00,22.2,7.0,30.38,NNW,335,0.0,3.0,52,0.00,,,0.00,weatherlink.com 1.10,2013-01-18 21:56:00,
2013-01-18 17:11:00,21.5,8.0,30.38,NNW,333,0.0,0.0,55,0.00,,,0.00,weatherlink.com 1.10,2013-01-18 22:11:00,
2013-01-18 17:27:00,20.7,8.0,30.38,North,1,0.0,0.0,57,0.00,,,0.00,weatherlink.com 1.10,2013-01-18 22:27:00,
2013-01-18 17:43:00,20.4,9.0,30.39,NE,56,0.0,1.0,61,0.00,,,0.00,weatherlink.com 1.10,2013-01-18 22:43:00,
2013-01-18 17:59:00,19.6,9.0,30.39,East,84,0.0,1.0,63,0.00,,,0.00,weatherlink.com 1.10,2013-01-18 22:59:00,
2013-01-18 18:15:00,19.1,9.0,30.38,East,101,0.0,1.0,63,0.00,,,0.00,weatherlink.com 1.10,2013-01-18 23:15:00,
2013-01-18 18:30:00,19.0,8.0,30.38,East,101,1.0,1.0,63,0.00,,,0.00,weatherlink.com 1.10,2013-01-18 23:30:00,
2013-01-18 18:46:00,19.1,8.0,30.38,East,84,0.0,1.0,61,0.00,,,0.00,weatherlink.com 1.10,2013-01-18 23:46:00,
2013-01-18 19:02:00,19.2,8.0,30.37,ESE,104,0.0,2.0,61,0.00,,,0.00,weatherlink.com 1.10,2013-01-19 00:02:00,
2013-01-18 19:18:00,19.0,8.0,30.37,ESE,110,0.0,2.0,61,0.00,,,0.00,weatherlink.com 1.10,2013-01-19 00:18:00,
2013-01-18 19:33:00,18.9,8.0,30.37,ESE,112,0.0,3.0,61,0.00,,,0.00,weatherlink.com 1.10,2013-01-19 00:33:00,
2013-01-18 19:49:00,19.0,8.0,30.35,SE,139,3.0,4.0,61,0.00,,,0.00,weatherlink.com 1.10,2013-01-19 00:49:00,
2013-01-18 20:05:00,19.3,8.0,30.36,East,88,1.0,3.0,60,0.00,,,0.00,weatherlink.com 1.10,2013-01-19 01:05:00,
2013-01-18 20:21:00,19.4,7.0,30.36,SE,126,2.0,4.0,59,0.00,,,0.00,weatherlink.com 1.10,2013-01-19 01:21:00,
2013-01-18 20:38:00,19.7,7.0,30.34,SE,145,2.0,7.0,58,0.00,,,0.00,weatherlink.com 1.10,2013-01-19 01:38:00,
2013-01-18 20:53:00,20.0,8.0,30.35,ENE,70,2.0,6.0,58,0.00,,,0.00,weatherlink.com 1.10,2013-01-19 01:53:00,
2013-01-18 21:08:00,20.3,8.0,30.34,ESE,123,2.0,5.0,58,0.00,,,0.00,weatherlink.com 1.10,2013-01-19 02:08:00,
2013-01-18 21:24:00,20.4,8.0,30.34,ESE,112,4.0,7.0,58,0.00,,,0.00,weatherlink.com 1.10,2013-01-19 02:24:00,
2013-01-18 21:40:00,20.9,8.0,30.32,SSE,150,3.0,7.0,58,0.00,,,0.00,weatherlink.com 1.10,2013-01-19 02:40:00,
2013-01-18 21:56:00,21.8,9.0,30.32,ESE,108,9.0,11.0,57,0.00,,,0.00,weatherlink.com 1.10,2013-01-19 02:56:00,
2013-01-18 22:12:00,22.4,9.0,30.31,East,85,3.0,11.0,56,0.00,,,0.00,weatherlink.com 1.10,2013-01-19 03:12:00,
2013-01-18 22:27:00,22.7,9.0,30.30,East,92,3.0,7.0,56,0.00,,,0.00,weatherlink.com 1.10,2013-01-19 03:27:00,
2013-01-18 22:43:00,23.5,9.0,30.29,ESE,120,3.0,11.0,54,0.00,,,0.00,weatherlink.com 1.10,2013-01-19 03:43:00,
2013-01-18 22:59:00,23.9,9.0,30.27,East,97,5.0,13.0,53,0.00,,,0.00,weatherlink.com 1.10,2013-01-19 03:59:00,
2013-01-18 23:15:00,24.4,9.0,30.27,East,87,4.0,13.0,52,0.00,,,0.00,weatherlink.com 1.10,2013-01-19 04:15:00,
2013-01-18 23:30:00,24.7,10.0,30.24,ESE,115,8.0,14.0,52,0.00,,,0.00,weatherlink.com 1.10,2013-01-19 04:30:00,
2013-01-18 23:46:00,25.2,10.0,30.23,SE,141,2.0,18.0,52,0.00,,,0.00,weatherlink.com 1.10,2013-01-19 04:46:00,